星链-1481 (STARLINK-1481 )

导读 | 星芒AI

STARLINK-1481 是 SpaceX Starlink 项目中的一颗低轨通信卫星,属于第1481组发射任务中部署的卫星之一。该卫星旨在为全球用户提供高速互联网服务,尤其关注网络覆盖不足的地区。它运行在约550公里高的近地轨道,采用先进通信技术,支持宽带数据传输。Starlink 卫星群由数千颗卫星组成,目标是构建一个高效、低延迟的全球互联网网络。STARLINK-1481 的成功部署有助于提升 Starlink 系统的稳定性和服务能力。

基本信息
目录编号:
45742
目录名称:
STARLINK-1481
国际标识:
2020-038N
轨道中心:
EARTH
卫星名称:
星链-1481
卫星全名:
星链-1481 (STARLINK-1481 )
卫星状态:
已陨落 最后检测时间 2025-08-24
发射日期:
2020-06-13 UTC
国别 :
美国 (US)
星等 :
--
轨道信息
数据来源 国际轨道数据
星历时间: 2025-08-24T13:57:14+0800
轨道信息已过期113天
半长轴: 6527.854km
偏心率: 0.0003728
轨道倾角: 53.021°
近地点辐角 291.331°
升交点赤经 303.803°
平近点角 68.734°
近地点: 147.285km
远地点: 152.153km
周期: 87.481分钟
每日圈数: 16.460658
详细信息
固有亮度:
5
最大亮度:
2.5
卫星平台:
Starlink V1.0
覆盖范围:
全球
运营商:
太空探索技术公司
运营商所在国:
美国
制造商(研发单位):
太空探索技术公司
制造商所在国:
美国
使用方式:
暂无
卫星简介
星链(Starlink)计划是由太空探索技术公司(SpaceX)提出的一个巨型低轨卫星互联网星座项目,计划在2019年至2024年间在太空搭建由约1.2万颗卫星组成的“星链”网络,其中1584颗将部署在地球上空550千米处的近地轨道,并从2020年开始工作。该卫星仍在工作。